Pagina principale
METAR-TAF:

METAR-TAF

Aeroporti :

Capo Bellavista

Tortolì, Italia

latitudine: 39-56N, longitudine: 009-43E, altezza: 138 m

Osservazione

Il bollettino è stato emesso 1 ora e 15 minuti fa, alle 11:55 UTC
Vento 16 kt da nord-ovest
Temperature 6°C
Umidità 75%
Pressione 1027 hPa
Visibilità 10 km o più
Nuvoloso ad un'altezza di 3000 ft

METAR: LIEB 091155Z 31016KT 9999 BKN030 06/02 Q1027 RMK BKN QUK 3 QUL 0 VIS MAR 20 KM MON W CIME INC NC VIS MIN 9999

Ora: 14:10 (13:10 UTC)


TAF: mancante

Osservazioni e previsioni meteorologiche di più di 4000 aeroporti (messaggi METAR e TAF).

Le stazioni disponibili sono rappresentate dai dischi gialli e rossi sulla carta.

Puntare il mouse per vedere il nome della stazione.

Clicca sopra per visualizzare le osservazioni e previsioni meteorologiche.

Per cambiare la mappa : fare clic sui pulsanti verdi con una croce nera per ingrandire, il pulsante verde con un trattino per diminuire, o sulla freccia verde per le mappe adiacenti.


METAR-TAF: